Printer-friendly version
Follow the MPC on Twitter Follow the MPC on Facebook The MPC blog
Minor Planet Center

MPEC 2000-G27 : 2000 GE2

The following Minor Planet Electronic Circular may be linked-to from your own Web pages, but must not otherwise be redistributed electronically.

A form allowing access to any MPEC is at the bottom of this page.


Read MPEC 2000-G26 Read MPEC 2000-G28


M.P.E.C. 2000-G27                                Issued 2000 Apr. 6, 17:26 UT

     The Minor Planet Electronic Circulars contain information on unusual
         minor planets and routine data on comets.  They are published
   on behalf of Commission 20 of the International Astronomical Union by the
          Minor Planet Center, Smithsonian Astrophysical Observatory,
                          Cambridge, MA 02138, U.S.A.

             Prepared using the Tamkin Foundation Computer Network

             BMARSDEN@CFA.HARVARD.EDU or GWILLIAMS@CFA.HARVARD.EDU
          URL http://cfa-www.harvard.edu/iau/mpc.html  ISSN 1523-6714

                                   2000 GE2

Observations:
     K00G02E  C2000 03 30.33290 12 52 56.16 -10 19 08.0          17.9        704
     K00G02E  C2000 03 30.34819 12 52 54.21 -10 19 17.5          17.8        704
     K00G02E  C2000 03 30.36270 12 52 52.35 -10 19 25.8          17.7        704
     K00G02E  C2000 03 30.37950 12 52 50.24 -10 19 35.9          17.7        704
     K00G02E  C2000 03 30.41670 12 52 45.46 -10 19 57.0          17.7        704
     K00G02E* C2000 04 03.23373 12 43 50.24 -11 04 27.5          16.4        704
     K00G02E  C2000 04 03.26325 12 43 44.59 -11 04 51.8          16.0        704
     K00G02E  C2000 04 03.26395 12 43 44.64 -11 04 53.4          16.9 R      699
     K00G02E  C2000 04 03.27764 12 43 41.80 -11 05 03.7          15.9        704
     K00G02E  C2000 04 03.29639 12 43 38.49 -11 05 20.2                      699
     K00G02E  C2000 04 03.32034 12 43 33.85 -11 05 40.0                      699
     K00G02E  C2000 04 03.34426 12 43 29.26 -11 05 59.3                      699
     K00G02E  C2000 04 04.19212 12 40 56.10 -11 18 02.9          14.7        704
     K00G02E  C2000 04 04.20759 12 40 52.84 -11 18 17.1          14.6        704
     K00G02E  C2000 04 04.21759 12 40 50.84 -11 18 25.1          19.0 V      854
     K00G02E  C2000 04 04.22185 12 40 50.00 -11 18 27.9          19.0 V      854
     K00G02E  C2000 04 04.22253 12 40 49.67 -11 18 30.7          14.6        704
     K00G02E  C2000 04 04.23775 12 40 46.43 -11 18 44.7          15.2        704
     K00G02E  C2000 04 04.23865 12 40 46.24 -11 18 45.4          16.9        704
     K00G02E  C2000 04 04.25293 12 40 43.27 -11 18 58.4          15.9        704
     K00G02E  C2000 04 04.25304 12 40 43.30 -11 18 57.3          18.3        704
     K00G02E  C2000 04 04.26742 12 40 40.08 -11 19 11.4          17.1        704
     K00G02E 5C2000 04 04.27678 12 40 38.33 -11 19 20.8          16.4        688
     K00G02E  C2000 04 04.28179 12 40 36.97 -11 19 24.3          17.0        704
     K00G02E  C2000 04 04.29623 12 40 33.86 -11 19 37.6          17.1        704
     K00G02E 5C2000 04 04.30841 12 40 31.52 -11 19 49.3          16.3        688
     K00G02E 4C2000 04 04.31481 12 40 30.36 -11 19 54.4                      673
     K00G02E 4C2000 04 04.31652 12 40 30.03 -11 19 55.8                      673
     K00G02E 4C2000 04 04.31766 12 40 29.62 -11 19 57.5                      673
     K00G02E  C2000 04 05.09476 12 37 50.92 -11 31 09.7          18.1 V      860
     K00G02E  C2000 04 05.09906 12 37 49.87 -11 31 14.4          18.4 V      860
     K00G02E  C2000 04 05.10115 12 37 49.41 -11 31 15.3          18.2 V      860
     K00G02E  C2000 04 05.10324 12 37 48.93 -11 31 17.3          18.4 V      860
     K00G02E  C2000 04 05.20107 12 37 29.05 -11 33 46.7          14.7        704
     K00G02E  C2000 04 05.21828 12 37 24.98 -11 34 03.9          15.1        704
     K00G02E  C2000 04 05.23495 12 37 21.00 -11 34 21.2          14.8        704
     K00G02E  C2000 04 05.25127 12 37 17.09 -11 34 37.2          15.2        704
     K00G02E  C2000 04 05.26399 12 37 14.23 -11 34 51.4          16.5 R      699
     K00G02E  C2000 04 05.26748 12 37 13.18 -11 34 53.4          15.1        704
     K00G02E  C2000 04 05.27985 12 37 10.41 -11 35 07.2                      699
     K00G02E  C2000 04 05.29575 12 37 06.57 -11 35 23.3                      699
     K00G02E  C2000 04 05.31166 12 37 02.71 -11 35 39.0                      699
     K00G02E  C2000 04 05.74022 12 35 23.49 -11 42 53.5                      345
     K00G02E  C2000 04 05.74370 12 35 22.62 -11 42 57.2                      345

Observer details:
345 Sobaeksan Optical Astronomy Observatory.  Observers J.-H. Yun, S.-L. Kim.
    0.61-m reflector + CCD.
673 Table Mountain Observatory, Wrightwood.  Observer M. Hicks.  0.6-m
    reflector + CCD.
688 Lowell Observatory, Anderson Mesa Station.  Observer L. A. Wasserman.
    1.8-m reflector + CCD
699 Lowell Observatory-LONEOS.  Observer W. D. Ferris.  Measurer B. W. Koehn.
    0.59-m LONEOS Schmidt + CCD.
704 Lincoln Laboratory ETS, New Mexico.  Observers M. Blythe, F. Shelly,
    M. Bezpalko, M. Elowitz, R. Huber.  Measurers J. Stuart, H. Viggh,
    R. Sayer, J. B. Evans.  1.0-m f/2.15 reflector + CCD.
854 Sabino Canyon Observatory, Tucson.  Observer J. E. McGaha.  0.30-m f/6.1
    Schmidt-Cassegrain + CCD.
860 Valinhos.  Observer P. R. Holvorcem.  0.36-m f/3.6 Schmidt-Cassegrain
    + CCD.

Orbital elements:
2000 GE2                                                             PHA 0.011
Epoch 2000 Mar. 17.0 TT = JDT 2451620.5                 Williams
M 317.70697              (2000.0)            P               Q
n   0.49794075     Peri.  297.29683     +0.33040733     +0.94382355
a   1.5764648      Node   351.99123     -0.85194796     +0.29581716
e   0.5492886      Incl.    2.18078     -0.40622121     +0.14727294
P   1.98           H   20.2           G   0.15
From 44 observations 2000 Mar. 30-Apr. 5.

Ephemeris:
2000 GE2                 a,e,i = 1.58, 0.55, 2                   q = 0.7105
Date    TT    R. A. (2000) Decl.     Delta      r     Elong.  Phase     V
2000 03 27    12 58.26   -09 48.6    0.231    1.225   168.9     9.0    18.1
2000 03 28    12 56.85   -09 57.0    0.221    1.217   170.0     8.2    17.9
2000 03 29    12 55.29   -10 05.9    0.211    1.208   171.1     7.3    17.8
2000 03 30    12 53.56   -10 15.3    0.202    1.199   172.1     6.6    17.6
2000 03 31    12 51.64   -10 25.4    0.192    1.190   173.0     5.9    17.5
2000 04 01    12 49.51   -10 36.3    0.183    1.181   173.7     5.3    17.3
2000 04 02    12 47.13   -10 48.0    0.173    1.172   174.2     5.0    17.2
2000 04 03    12 44.48   -11 00.7    0.164    1.163   174.2     5.0    17.0
2000 04 04    12 41.52   -11 14.6    0.155    1.154   173.7     5.4    16.9
2000 04 05    12 38.18   -11 29.8    0.146    1.145   172.9     6.2    16.8
2000 04 06    12 34.41   -11 46.7    0.137    1.136   171.6     7.4    16.7
2000 04 07    12 30.12   -12 05.4    0.128    1.127   170.0     8.8    16.6
2000 04 08    12 25.22   -12 26.4    0.119    1.118   168.2    10.5    16.5
2000 04 09    12 19.56   -12 50.1    0.110    1.109   166.1    12.5    16.4
2000 04 10    12 12.97   -13 16.9    0.102    1.100   163.8    14.8    16.3
2000 04 11    12 05.22   -13 47.6    0.094    1.091   161.1    17.3    16.2
2000 04 12    11 55.98   -14 22.9    0.085    1.082   158.0    20.3    16.0
2000 04 13    11 44.83   -15 03.5    0.077    1.073   154.4    23.8    15.9
2000 04 14    11 31.15   -15 50.3    0.070    1.064   150.3    27.8    15.8
2000 04 15    11 14.10   -16 43.8    0.062    1.055   145.3    32.7    15.7
2000 04 16    10 52.49   -17 43.6    0.055    1.046   139.3    38.7    15.6
2000 04 17    10 24.78   -18 46.7    0.049    1.037   131.9    46.1    15.5
2000 04 18    09 49.13   -19 44.5    0.043    1.028   122.7    55.3    15.5
2000 04 19    09 04.11   -20 19.3    0.039    1.019   111.4    66.6    15.6
2000 04 20    08 10.26   -20 04.3    0.036    1.010    98.0    79.9    15.8
2000 04 21    07 11.81   -18 38.4    0.036    1.002    83.5    94.4    16.3
2000 04 22    06 15.71   -16 09.7    0.037    0.993    69.3   108.7    17.1
2000 04 23    05 27.46   -13 13.1    0.040    0.984    56.7   121.3    18.1
2000 04 24    04 48.73   -10 22.6    0.045    0.975    46.3   131.8    19.3
2000 04 25    04 18.56   -07 54.7    0.051    0.966    38.0   140.1    20.5
2000 04 26    03 55.12   -05 52.3    0.058    0.958    31.5   146.7    21.7

Gareth V. Williams           (C) Copyright 2000 MPC           M.P.E.C. 2000-G27

Read MPEC 2000-G26 Read MPEC 2000-G28


MPEC number:

Enter an MPEC number in one of the following forms:

  • 1997-B01 (the full form)
  • J97B01 (the packed version of the full form)
  • B01 (the abbreviated form)

Valid HTML 4.01!